Location: Étouvelles
(49.5207°N, 3.5808°E)
Time: 15:31:49
(UTC+00:00)

Cosmos 540 Rocket - Pass Details

Date: 03 February 2023
Orbit: 740 x 751 km, 74.1° (Epoch: 26 March)

Event Time Altitude Azimuth Distance (km) Brightness Sun altitude
Rises 18:30:33 0° 334° (NNW) 3,209 7.0 -17.4°
Reaches altitude 10° 18:32:56 10° 332° (NNW) 2,278 6.2 -17.8°
Maximum altitude 18:38:03 68° 251° (WSW) 808 3.8 -18.6°
Drops below altitude 10° 18:43:07 10° 169° (S) 2,254 5.8 -19.4°
Sets 18:45:27 0° 167° (SSE) 3,171 6.6 -19.8°
